Location: Newark
(22.3060°N, 114.2134°E)
Time: 02:25:26
(UTC+00:00)

Vanguard 2 - Pass Details

Date: 11 August 2021
Orbit: 553 x 2937 km, 32.9° (Epoch: 27 September)

Event Time Altitude Azimuth Distance (km) Brightness Sun altitude
Rises 01:15:03 0° 272° (W) 3,194 10.3 43.9°
Reaches altitude 10° 01:17:40 10° 256° (WSW) 2,502 9.8 44.5°
Maximum altitude 01:22:11 22° 206° (SSW) 2,201 9.9 45.5°
Drops below altitude 10° 01:28:25 10° 160° (SSE) 3,601 11.3 47.0°
Sets 01:33:13 0° 147° (SSE) 5,075 12.0 48.1°
